Weather in Bol'shoye Zakhar'yevskoye

Russia / Smolensk Oblast     54°41′46″N   33°51′29″E
temp.,
°C
wind,
m/s
gust,
m/s
humid.,
%
clouds,
%
prec.,
mm/h
press.,
hPa
HPBL,
m
2 july, sat
sat200:00+11e29700 0.0 1023172
03:00+9se22800 0.0 102413
06:00+11sse11755 0.0 102545
09:00+18n00470 0.0 1025528
12:00+23nnw12323 0.0 10231289
15:00+24wnw332943 0.0 10221722
18:00+23nw24405 0.0 10211022
21:00+17wsw228086 0.0 102125
3 july, sun
sun300:00+14wnw22855 0.0 102129
03:00+14wnw2395100 0.0 102159
06:00+15wnw2689100 0.0 1020156
09:00+22nw2465100 0.0 1019410
12:00+26nw344587 0.0 10191298
15:00+28nw344198 0.0 10181892
18:00+27nw235144 0.0 10171083
21:00+20wnw238254 0.0 101852
4 july, mon
mon400:00+18wnw229464 0.0 101836
03:00+17wnw11967 0.0 101814
06:00+18nw129189 0.0 101880
09:00+24nw1165100 0.0 1018394
12:00+27wnw1152100 0.0 10181078
15:00+29wsw224088 0.0 10172715
18:00+21ene398348 0.9 1017224
21:00+18sw129221 2.0 101816
5 july, tue
tue500:00+18se11955 0.3 101814
03:00+17ssw119619 0.3 101811
06:00+18wsw22948 0.0 101860
09:00+24sw127197 0.0 1018442
12:00+27wsw3350100 0.0 10171670
15:00+28wsw3444100 0.0 10172078
18:00+27w345010 0.0 10161361
21:00+21wsw1177100 0.0 101611
6 july, wed
wed600:00+19sse128198 0.0 101614
03:00+18sse249332 0.9 101564
06:00+18ssw289597 0.9 1015213
09:00+23sw3569100 0.9 1014501
12:00+25sw2364100 0.0 1014657
15:00+23sw5885100 1.4 1014574
18:00+20wsw259653 6.5 1014371
21:00+18wnw379690 6.6 1014358